CZ-6A DEB

Satellite information

Favourite Embed

Satellite Type and Status

DEBRISIN ORBIT

Key statistics

Satellite CZ-6A DEB at a glance.

Uptime

969

Days in orbit

Revolutions

≈ 14.5

Per day

Orbit

SSO

Sun Synchronous Orbit

Inclination

98.8

Latest

Satellite identification and parameters

Extended collection of information and parameters for CZ-6A DEB.

Object identification

Identified? True

Debris? True

Object name: CZ-6A DEB

International designator: 2022-151KT

Object number (NORAD): 54543

Object ID (CCSDS): 54543

Country: PEOPLES REPUBLIC OF CHINA (PRC)

Current information (Y/N): Y

RCS size: SMALL

Orbital parameters

Period: 99.359 minutes

Inclination: 98.7695 deg

SMA: 7106.087 km

Apoapsis: 808.894 km

Periapsis: 647.01 km

RAAN: 244.6093 deg

Eccentricy: 0.0113905

Argument of periapsis: 283.9413 deg

Mean anomaly: 74.9133 deg

Mean motion: 14.49295701 rev/day

Mean motion (dot): 0.00001736 rev/day2

B* drag term: 0.00043207 1/REarth

Two-line elements (TLE)

Creation date: July 6, 2025, 6:05 p.m.

Reference frame: TEME

Reference center: EARTH

Epoch: July 6, 2025, 2:35 p.m. UTC

TLE line 0: 0 CZ-6A DEB

TLE line 1: 1 54543U 22151KT 25187.60765656 .00001736 00000-0 43207-3 0 9992

TLE line 2: 2 54543 98.7695 244.6093 0113905 283.9413 74.9133 14.49295701139411

Live tracking on map

Real-time ground track for satellite CZ-6A DEB.

In-orbit conjunctions

A list of the most updated potential collisions computed for object CZ-6A DEB.

Target Orbit TCA Probability of collision Miss distance Type
COSMOS 1275 DEB LEO 2024-11-12 19:57:37 0.0004589867 98.0 (m) DEBRIS
METEOR 2-8 DEB LEO 2024-07-17 13:38:16 0.0001848229 109.0 (m) DEBRIS

Associated space launch

Chinese satellite reported for atmospheric/ocean/environmental/spatial parameter research purposes, details TBD.

CZ-6A DEB was lifted into orbit during the mission ‘Long March 6A | Yunhai 3’, on board a Long March 6A space rocket.

The launch took place on Nov. 11, 2022, 10:52 p.m. from Launch Complex 9A.

For more information about the launch, click the button.

Launch to space Long March 6A | Yunhai 3
Long March 6A | Yunhai 3

Agency: N/A

Status: Launch Successful

Launch date: Nov. 11, 2022, 10:52 p.m. UTC

Rocket: Long March 6A

Launch pad: Launch Complex 9A

Location: Taiyuan Satellite Launch Center, People's Republic of China

...

Latest news about this satellite

There are no fresh news available about this satellite. Check back as we update our databases every day.


Newsletter sign-up

Weekly statistics, charts and insights to help you stay on top of the space industry.